Regional Weather Roundup
Issued by NWS

Home | Current Version | Previous Version | Text Only | Print | Product List | Glossary Off
Versions: 1 2 3 4 5 6 7 8 9 10 11 12 13 14 15 16 17 18 19 20 21 22 23 24 25 26 27 28 29 30 31 32 33 34 35 36 37 38 39 40 41 42 43 44 45 46 47 48 49 50

000
ASUS43 KLSX 211007
RWRMO

WEATHER SUMMARY FOR MISSOURI
NATIONAL WEATHER SERVICE SPRINGFIELD MO
500 AM CDT THU SEP 21 2017

NOTE: "FAIR" INDICATES FEW OR NO CLOUDS BELOW 12,000 FEET WITH NO
       SIGNIFICANT WEATHER AND/OR OBSTRUCTIONS TO VISIBILITY.
       CURRENT SKY AND/OR WEATHER CONDITIONS ARE NOT AVAILABLE FOR
       CHILLICOTHE AND FARMINGTON.

MOZ001>031-035>038-043-044-053-054-211100-
...NORTHERN AND WESTERN MISSOURI...

CITY           SKY/WX    TMP DP  RH WIND       PRES   REMARKS
KANSAS CTY INT PTCLDY    76  72  87 S10       29.87S
KANSAS C DTWN  CLEAR     79  73  82 S12       29.87R
LEE`S SUMMIT   CLEAR     77  72  84 S15       29.89S
ST JOSEPH      CLEAR     70  70 100 N3        29.85S
CHILLICOTHE      N/A     76  73  91 SE3       29.90R
KIRKSVILLE     CLOUDY    74  70  87 S7        29.93R

$$
MOZ066>068-077>081-088>096-101>105-211100-
...SOUTHWEST MISSOURI...

CITY           SKY/WX    TMP DP  RH WIND       PRES   REMARKS
SPRINGFIELD    CLEAR     73  70  90 SE9       29.96R
JOPLIN         CLEAR     76  72  87 S9        29.92S
BRANSON        CLEAR     72  70  94 SE7       29.99S

$$
MOZ032>034-039>042-045>050-055>058-069>072-211100-
...CENTRAL MISSOURI...

CITY           SKY/WX    TMP DP  RH WIND       PRES   REMARKS
COLUMBIA       CLEAR     74  71  91 S6        29.95F
JEFFERSON CITY CLEAR     76  69  79 SE6       29.94F
ROLLA          CLEAR     72  70  93 S9        30.00R
SEDALIA        CLOUDY    75  72  90 S8        29.94R
WHITEMAN AFB   PTCLDY    75  75 100 S7        29.90S
WARRENSBURG    CLEAR     72  68  88 S7        29.90S
OSAGE BEACH    CLEAR     73  70  90 SE7       29.97R

$$
MOZ051-052-059>065-211100-
...EAST CENTRAL MISSOURI...

CITY           SKY/WX    TMP DP  RH WIND       PRES   REMARKS
ST LOUIS INTL  PTCLDY    77  70  79 S6        29.99R
ST CHARLES     PTCLDY    70  69  97 E3        29.97S

$$
MOZ072>076-082>087-097>100-106>115-211100-
...SOUTH CENTRAL AND SOUTHEAST MISSOURI...

CITY           SKY/WX    TMP DP  RH WIND       PRES   REMARKS
CAPE GIRARDEAU CLEAR     69  68  96 CALM      30.01R
FARMINGTON     CLEAR     69  67  93 E5        30.03R
POPLAR BLUFF   CLEAR     66  66 100 CALM      30.00R FOG
WEST PLAINS    CLEAR     70  68  93 CALM      30.02R FOG

$$



USA.gov is the U.S. government's official web portal to all federal, state and local government web resources and services.